[[{"header":{"parameterUnit":"m.s-1","parameterCategory":1,"la1":30.2991,"la2":30.254,"lo1":-89.0895,"lo2":-89.0444,"dy":0.0017,"dx":0.0017,"nx":28,"ny":28,"refTime":"2025-04-11T09:00:00:Z","depth":0,"parameterNumber":2,"parameterNumberName":"U-component_of_WINDS"},"data":[0,0,0,0,0,0,0,0,0,0,0,0,0,0,0,0,0,0,0,0,0,0,0,0,0,0,0,0,0,0,0,0,0,0,0,0,0,0,0,0,0,0,0,0,0,0,0,0,0,0,0,0,0,0,0,0,0,0,2.8052,2.8052,0,2.8065,2.8065,2.8065,2.8068,2.8068,2.8068,2.8067,2.808,2.808,2.8081,0,0,0,0,0,0,0,0,0,0,0,0,0,2.8033,2.8033,2.8052,2.8052,2.8053,2.8065,2.8065,2.8065,2.8068,2.8068,2.8068,2.8067,2.808,2.808,2.8081,0,0,0,0,0,0,0,0,0,0,0,0,0,2.8043,2.8033,2.8052,2.8055,2.8056,2.8065,2.8065,2.8065,2.8068,2.8068,2.8067,2.8067,2.808,2.808,2.8081,2.8087,0,0,2.8083,2.8083,0,0,0,0,0,0,0,0,2.8042,2.8044,2.8055,2.8055,2.8056,2.8064,2.8062,2.8072,2.8068,2.8063,2.8067,2.8067,2.8075,2.8076,2.8078,2.8088,2.8088,2.8083,2.8083,2.8083,2.8084,0,0,0,0,0,0,0,2.8042,2.8043,2.8057,2.8055,2.8056,2.8057,2.8058,2.8064,2.807,2.8064,2.8064,2.8065,2.8075,2.8078,2.8079,2.8088,2.8083,2.8083,2.8084,2.8084,2.8106,2.8106,0,0,0,0,0,0,2.804,2.8042,2.8057,2.8057,2.8049,2.8057,2.8059,2.8062,2.807,2.8071,2.8065,2.8065,2.8077,2.8078,2.8079,2.8088,2.8083,2.8084,2.8084,2.8106,2.8106,2.8106,0,0,0,0,0,0,2.804,2.8041,2.8056,2.805,2.8052,2.8058,2.8061,2.8062,2.8065,2.8071,2.8072,2.8067,2.8077,2.8078,2.8086,2.8089,2.8084,2.8085,2.8105,2.8106,2.8106,2.8105,0,0,0,0,0,0,2.8039,2.8041,2.8043,2.805,2.8052,2.8062,2.8061,2.8062,2.8066,2.8066,2.8073,2.8074,2.8077,2.8085,2.8086,2.8089,2.8085,2.8105,2.8106,2.8106,2.8105,2.8106,2.8106,0,0,0,0,0,2.8038,2.8042,2.8043,2.8045,2.8055,2.8062,2.8063,2.8067,2.8066,2.8068,2.8073,2.8074,2.8088,2.8085,2.8087,2.809,2.8105,2.8105,2.8106,2.8105,2.8105,2.8106,0,0,0,0,0,0,2.8034,2.8043,2.8044,2.805,2.8055,2.8062,2.8065,2.8067,2.8072,2.8072,2.8077,2.8078,2.8085,2.8089,2.8086,2.8098,2.8097,2.8098,2.8095,2.8096,2.8096,2.8095,2.8086,0,0,0,0,0,2.8034,2.8039,2.8046,2.8051,2.8054,2.8059,2.8062,2.8065,2.807,2.8073,2.8077,2.8083,2.8089,2.8093,2.8099,2.8106,2.8108,2.811,2.811,2.811,2.8111,2.8117,2.8118,2.8108,2.8108,2.8108,0,0,2.8034,2.8039,2.8042,2.805,2.8055,2.806,2.8061,2.8066,2.8071,2.8073,2.8081,2.8085,2.8092,2.8099,2.8103,2.8102,2.8114,2.8111,2.8111,2.8111,2.8117,2.8118,2.8119,2.8108,2.8108,2.8108,0,0,2.8036,2.804,2.8045,2.805,2.8057,2.8061,2.8062,2.807,2.8073,2.808,2.8083,2.8089,2.8099,2.8104,2.8108,2.8115,2.8116,2.8117,2.8119,2.8125,2.8125,2.8126,2.8129,2.813,2.8118,2.8118,2.8118,0,2.8034,2.8042,2.8047,2.8053,2.8057,2.8061,2.8067,2.8071,2.808,2.8083,2.8082,2.8097,2.8101,2.8111,2.8113,2.8116,2.8118,2.8115,2.8125,2.8126,2.8126,2.8129,2.813,2.8118,2.8118,2.8118,2.8118,0,2.804,2.8046,2.8049,2.8058,2.8063,2.8069,2.8075,2.808,2.8083,2.8087,2.8096,2.8102,2.811,2.8113,2.8115,2.8124,2.8123,2.8124,2.8122,2.8127,2.813,2.8131,2.8118,2.8118,2.8118,2.8118,0,0,2.8038,2.8051,2.8052,2.8057,2.8067,2.8071,2.8078,2.8086,2.8091,2.8097,2.8103,2.8113,2.8115,2.8119,2.8123,2.8128,2.8134,2.8128,2.8128,2.8129,2.8145,2.8144,2.8145,2.8136,2.8136,2.8136,2.8144,0,2.8041,2.8052,2.8058,2.8068,2.8074,2.8079,2.8085,2.8092,2.8097,2.8104,2.811,2.8117,2.8118,2.8121,2.8126,2.8132,2.8137,2.8132,2.8142,2.8142,2.8139,2.8147,2.8145,2.8153,2.8146,2.8146,2.8146,0,2.8045,2.8053,2.8063,2.8074,2.8076,2.8082,2.8091,2.8097,2.8106,2.8109,2.8116,2.812,2.8128,2.8127,2.8139,2.8136,2.8141,2.8145,2.8145,2.8145,2.8144,2.8147,2.8155,2.8156,2.8148,2.8147,2.8147,0,2.8043,2.8056,2.8064,2.8068,2.808,2.8084,2.8089,2.8098,2.8103,2.8112,2.8115,2.8125,2.813,2.8137,2.8144,2.8143,2.8156,2.8155,2.816,2.816,2.8161,2.8161,2.817,2.8165,2.8165,2.8165,2.8165,0,2.8045,2.8051,2.8063,2.8068,2.8075,2.8083,2.8091,2.8096,2.8105,2.8112,2.8117,2.8124,2.8132,2.814,2.8146,2.8156,2.8158,2.8162,2.8163,2.8161,2.816,2.8163,2.8163,2.8165,2.8165,2.8165,2.8165,0,2.8043,2.8051,2.806,2.8072,2.8075,2.8081,2.8091,2.8096,2.8103,2.8112,2.8114,2.8124,2.8134,2.8142,2.8155,2.8159,2.8169,2.8171,2.8166,2.8167,2.8171,2.817,2.8181,2.8184,2.8178,2.8178,2.8178,0,2.8044,2.8049,2.8062,2.8067,2.8072,2.808,2.8086,2.8095,2.8101,2.8113,2.8117,2.8128,2.8136,2.8152,2.8161,2.8171,2.8173,2.8176,2.8174,2.8173,2.8173,2.8173,2.8174,2.8176,2.8176,2.8176,2.8176,0,2.8045,2.8049,2.8057,2.8067,2.8074,2.8082,2.8091,2.8095,2.8105,2.8112,2.8122,2.8129,2.8143,2.8154,2.8166,2.8172,2.8176,2.8177,2.8179,2.8176,2.8173,2.8175,2.8167,2.8176,2.8176,2.8176,2.8176,2.8176,2.8044,2.8049,2.8059,2.8069,2.8077,2.8085,2.8091,2.8099,2.8108,2.812,2.8125,2.8136,2.8147,2.8163,2.817,2.8179,2.818,2.8182,2.8182,2.8182,2.8182,2.8173,2.8181,2.8181,2.8181,2.8181,2.8181,0,2.8045,2.8052,2.8061,2.8073,2.8081,2.8085,2.8096,2.8102,2.8112,2.8121,2.813,2.8143,2.8155,2.8165,2.8177,2.8183,2.8185,2.8185,2.8185,2.8186,2.8181,2.8179,2.8183,2.8183,2.8183,2.8183,2.8183,2.8183,2.8046,2.8056,2.8062,2.8076,2.8083,2.8094,2.81,2.8108,2.8116,2.813,2.814,2.8147,2.8158,2.8171,2.8182,2.8185,2.8189,2.8189,2.8192,2.8187,2.8186,2.8186,2.8184,2.819,2.819,2.8196,2.8196,2.8197]},{"header":{"parameterUnit":"m.s-1","parameterCategory":1,"la1":30.2991,"la2":30.254,"lo1":-89.0895,"lo2":-89.0444,"dy":0.0017,"dx":0.0017,"nx":28,"ny":28,"refTime":"2025-04-11T09:00:00:Z","depth":0,"parameterNumber":3,"parameterNumberName":"V-component_of_WINDS"},"data":[0,0,0,0,0,0,0,0,0,0,0,0,0,0,0,0,0,0,0,0,0,0,0,0,0,0,0,0,0,0,0,0,0,0,0,0,0,0,0,0,0,0,0,0,0,0,0,0,0,0,0,0,0,0,0,0,0,0,-5.4744,-5.4744,0,-5.4773,-5.4773,-5.4773,-5.4764,-5.4764,-5.4763,-5.4763,-5.4789,-5.4791,-5.4792,0,0,0,0,0,0,0,0,0,0,0,0,0,-5.468,-5.4681,-5.4744,-5.4744,-5.4744,-5.4772,-5.4773,-5.4773,-5.4765,-5.4764,-5.4763,-5.4762,-5.4789,-5.479,-5.4792,0,0,0,0,0,0,0,0,0,0,0,0,0,-5.4708,-5.4681,-5.4743,-5.4743,-5.4744,-5.4772,-5.4773,-5.4773,-5.4765,-5.4764,-5.4763,-5.4762,-5.4788,-5.479,-5.4792,-5.4822,0,0,-5.4798,-5.4799,0,0,0,0,0,0,0,0,-5.4706,-5.471,-5.4743,-5.4743,-5.4744,-5.4764,-5.476,-5.4789,-5.4765,-5.4757,-5.4763,-5.4762,-5.4781,-5.4784,-5.4791,-5.4823,-5.4824,-5.4798,-5.4799,-5.48,-5.4801,0,0,0,0,0,0,0,-5.4704,-5.4709,-5.4755,-5.4744,-5.4744,-5.4742,-5.4745,-5.4766,-5.4774,-5.4757,-5.4757,-5.476,-5.4781,-5.4789,-5.4792,-5.4824,-5.4798,-5.48,-5.4801,-5.4802,-5.4884,-5.4885,0,0,0,0,0,0,-5.4702,-5.4707,-5.4754,-5.4756,-5.4723,-5.4743,-5.4747,-5.4758,-5.4773,-5.4775,-5.4761,-5.476,-5.4787,-5.4789,-5.4793,-5.4829,-5.48,-5.4802,-5.4803,-5.4883,-5.4884,-5.4885,0,0,0,0,0,0,-5.4701,-5.4707,-5.4753,-5.4731,-5.4737,-5.4746,-5.4759,-5.4759,-5.4767,-5.4776,-5.4777,-5.4768,-5.4786,-5.479,-5.4815,-5.483,-5.4803,-5.4804,-5.4882,-5.4883,-5.4885,-5.4902,0,0,0,0,0,0,-5.4699,-5.4706,-5.4717,-5.4732,-5.4738,-5.4775,-5.4759,-5.4761,-5.4771,-5.477,-5.4783,-5.4784,-5.4786,-5.4812,-5.4817,-5.4832,-5.4806,-5.488,-5.4882,-5.4884,-5.49,-5.4904,-5.4907,0,0,0,0,0,-5.4697,-5.472,-5.4718,-5.4724,-5.4753,-5.4776,-5.478,-5.4782,-5.4772,-5.4784,-5.479,-5.4784,-5.4828,-5.4815,-5.482,-5.4836,-5.4879,-5.4882,-5.4884,-5.4898,-5.4903,-5.4907,0,0,0,0,0,0,-5.4705,-5.4722,-5.472,-5.4748,-5.4761,-5.4775,-5.4789,-5.4786,-5.4801,-5.4799,-5.48,-5.4803,-5.4829,-5.4835,-5.4821,-5.4866,-5.4852,-5.4856,-5.4861,-5.4866,-5.4869,-5.4867,-5.4807,0,0,0,0,0,-5.4711,-5.4729,-5.4742,-5.4766,-5.4773,-5.478,-5.479,-5.4791,-5.4804,-5.4808,-5.4816,-5.4828,-5.4845,-5.4856,-5.4872,-5.4901,-5.4904,-5.4915,-5.4918,-5.4921,-5.4924,-5.4941,-5.4946,-5.4893,-5.4893,-5.4893,0,0,-5.4721,-5.4733,-5.4744,-5.4768,-5.4778,-5.4797,-5.4784,-5.4804,-5.4818,-5.4811,-5.4836,-5.4842,-5.4856,-5.4884,-5.4897,-5.489,-5.494,-5.4924,-5.4927,-5.4928,-5.4944,-5.4949,-5.4954,-5.4895,-5.4894,-5.4894,0,0,-5.475,-5.4761,-5.4782,-5.4794,-5.481,-5.4815,-5.482,-5.4835,-5.484,-5.4865,-5.4861,-5.4877,-5.4906,-5.4916,-5.4925,-5.4962,-5.4957,-5.4967,-5.4985,-5.5002,-5.5006,-5.501,-5.5023,-5.5028,-5.497,-5.497,-5.497,0,-5.4761,-5.4789,-5.4794,-5.4815,-5.4826,-5.4823,-5.4845,-5.4856,-5.4876,-5.4883,-5.4876,-5.4913,-5.4922,-5.4953,-5.4962,-5.4969,-5.4976,-5.4965,-5.5005,-5.5009,-5.5013,-5.5025,-5.503,-5.4971,-5.4971,-5.4971,-5.4971,0,-5.4802,-5.4823,-5.4838,-5.486,-5.4873,-5.4894,-5.4902,-5.4914,-5.4915,-5.4921,-5.4948,-5.4959,-5.4978,-5.4985,-5.4985,-5.5017,-5.5012,-5.5005,-5.4991,-5.5019,-5.5031,-5.5036,-5.4973,-5.4972,-5.4972,-5.4972,0,0,-5.4834,-5.4861,-5.4866,-5.4877,-5.4896,-5.4912,-5.4934,-5.4954,-5.4965,-5.4979,-5.4998,-5.5024,-5.5018,-5.5028,-5.503,-5.5045,-5.5074,-5.5036,-5.5036,-5.5043,-5.5111,-5.5115,-5.5121,-5.5072,-5.5073,-5.5073,-5.5109,0,-5.4865,-5.4905,-5.4911,-5.4946,-5.4965,-5.4964,-5.4984,-5.4997,-5.5004,-5.5021,-5.5029,-5.5047,-5.5038,-5.5045,-5.506,-5.5067,-5.5088,-5.5065,-5.5088,-5.5089,-5.5084,-5.5127,-5.5132,-5.5165,-5.5114,-5.5115,-5.5116,0,-5.4905,-5.4924,-5.4961,-5.498,-5.4988,-5.5006,-5.5026,-5.5042,-5.5058,-5.5062,-5.5076,-5.5076,-5.5099,-5.5085,-5.5116,-5.5101,-5.5111,-5.5117,-5.5118,-5.5119,-5.5103,-5.5129,-5.5176,-5.518,-5.5123,-5.5122,-5.5122,0,-5.4926,-5.4959,-5.4987,-5.4996,-5.5018,-5.5031,-5.5041,-5.5056,-5.5069,-5.5086,-5.5094,-5.5114,-5.5124,-5.5139,-5.5144,-5.5134,-5.5176,-5.5162,-5.518,-5.518,-5.5187,-5.5187,-5.5236,-5.5195,-5.5195,-5.5195,-5.5195,0,-5.4959,-5.4982,-5.4996,-5.5013,-5.5039,-5.5046,-5.5072,-5.5081,-5.5095,-5.5114,-5.5114,-5.5131,-5.5138,-5.5156,-5.516,-5.5186,-5.5191,-5.5195,-5.5195,-5.5194,-5.5194,-5.52,-5.5198,-5.5196,-5.5196,-5.5196,-5.5196,0,-5.4985,-5.4995,-5.5025,-5.5046,-5.5051,-5.507,-5.5087,-5.5103,-5.5111,-5.5134,-5.514,-5.5152,-5.5174,-5.5182,-5.5207,-5.5211,-5.5241,-5.524,-5.5236,-5.5236,-5.5253,-5.5251,-5.5307,-5.5315,-5.527,-5.527,-5.527,0,-5.5004,-5.5023,-5.5046,-5.5059,-5.507,-5.5091,-5.5105,-5.5113,-5.5127,-5.5149,-5.5162,-5.5184,-5.5202,-5.5237,-5.5248,-5.5268,-5.5267,-5.5285,-5.527,-5.5269,-5.5267,-5.5266,-5.5268,-5.5288,-5.5288,-5.5288,-5.5289,0,-5.5039,-5.5044,-5.5065,-5.5088,-5.5104,-5.5122,-5.514,-5.515,-5.5161,-5.5177,-5.52,-5.5215,-5.5243,-5.5264,-5.5286,-5.5295,-5.5294,-5.5294,-5.5299,-5.5298,-5.5294,-5.5297,-5.5243,-5.5292,-5.5292,-5.5292,-5.5291,-5.5291,-5.5062,-5.5079,-5.5099,-5.5122,-5.5137,-5.5154,-5.5171,-5.5182,-5.5202,-5.5227,-5.523,-5.5256,-5.5273,-5.5302,-5.5313,-5.5332,-5.5327,-5.5334,-5.5336,-5.5337,-5.5339,-5.5293,-5.5336,-5.5336,-5.5336,-5.5336,-5.5336,0,-5.5097,-5.5111,-5.5132,-5.5158,-5.5176,-5.5176,-5.5196,-5.5211,-5.5234,-5.5251,-5.527,-5.5297,-5.5319,-5.5333,-5.5355,-5.5368,-5.5368,-5.5374,-5.5372,-5.5375,-5.5342,-5.5335,-5.5373,-5.5373,-5.5373,-5.5373,-5.5373,-5.5373,-5.5117,-5.5146,-5.5154,-5.5191,-5.5204,-5.523,-5.5241,-5.5257,-5.5271,-5.5303,-5.5322,-5.5331,-5.5347,-5.5371,-5.5392,-5.5395,-5.5403,-5.5409,-5.5412,-5.5381,-5.5377,-5.5373,-5.5367,-5.5411,-5.5411,-5.5443,-5.5443,-5.5443]}]]